This demonstration page uses our WeatherBlox Daily Observations layout. Learn more.

Left ArrowRight Arrow

40.92945, -100.16068

Hourly Observations for October 13, 2016

Temp ( °F °C ) Dew Point ( °F °C ) Humidity (%) Winds ( mph kmh ) Pressure ( in mb ) Visibility ( mi km ) Precip ( " mm )
12:15 am 00:15 Clear 33 0.6 29 -1.4 87 87 SSE 5 7 30.39 1029 10 16 N/A
12:35 am 00:35 Clear 34 1 29 -1.4 84 84 SE 5 7 30.36 1028 10 16 N/A
12:55 am 00:55 Clear 34 1 29 -1.4 84 84 SSE 5 7 30.36 1028 10 16 N/A
1:15 am 01:15 Clear 34 1 30 -1.1 86 86 SSE 6 9 30.36 1028 10 16 N/A
1:35 am 01:35 Clear 33 0.3 29 -1.5 88 88 S 5 7 30.36 1028 10 16 N/A
1:55 am 01:55 Clear 32 undefined 28 -2 87 87 S 5 7 30.36 1028 10 16 N/A
2:15 am 02:15 Clear 32 0.1 29 -1.7 88 88 S 6 9 30.36 1028 10 16 N/A
2:35 am 02:35 Clear 32 0.2 29 -1.5 89 89 S 6 9 30.36 1028 10 16 N/A
2:55 am 02:55 Clear 33 0.3 29 -1.4 89 89 S 5 7 30.36 1028 10 16 N/A
3:15 am 03:15 Clear 33 0.5 30 -1.1 89 89 S 5 7 30.36 1028 10 16 N/A
3:35 am 03:35 Clear 33 0.4 29 -1.4 88 88 SSE 5 7 30.36 1028 10 16 N/A
3:55 am 03:55 Clear 32 0.2 29 -1.5 89 89 S 6 9 30.33 1027 10 16 N/A
4:15 am 04:15 Clear 34 1 30 -1 87 87 S 8 13 30.33 1027 10 16 N/A
4:35 am 04:35 Clear 33 0.8 31 -0.8 89 89 S 7 11 30.33 1027 10 16 N/A
4:55 am 04:55 Clear 35 1.6 32 undefined 89 89 S 9 15 30.33 1027 10 16 N/A
5:15 am 05:15 Clear 35 1.6 32 undefined 89 89 S 8 13 30.33 1027 10 16 N/A
5:35 am 05:35 Clear 35 1.6 32 undefined 89 89 S 8 13 30.33 1027 10 16 N/A
5:55 am 05:55 Clear 35 1.6 32 undefined 89 89 S 6 9 30.33 1027 10 16 N/A
6:15 am 06:15 Clear 36 2 32 0.1 87 87 S 9 15 30.33 1027 10 16 N/A
6:35 am 06:35 Clear 36 2 32 undefined 87 87 S 7 11 30.33 1027 10 16 N/A
6:55 am 06:55 Clear 35 1.8 32 undefined 88 88 S 7 11 30.33 1027 10 16 N/A
7:15 am 07:15 Clear 35 1.7 32 undefined 89 89 S 7 11 30.33 1027 10 16 N/A
7:35 am 07:35 Clear 35 1.6 32 undefined 89 89 S 10 17 30.33 1027 10 16 N/A
7:55 am 07:55 Sunny 35 1.5 32 undefined 90 90 S 9 15 30.33 1027 10 16 N/A
8:15 am 08:15 Sunny 35 1.7 32 undefined 89 89 S 13 20 30.33 1027 10 16 N/A
8:35 am 08:35 Sunny 36 2.1 32 undefined 86 86 S 14 22 30.33 1027 10 16 N/A
8:55 am 08:55 Sunny 37 2.7 33 0.5 86 86 S 12 19 30.30 1026 10 16 N/A
9:15 am 09:15 Sunny 38 3.3 33 0.8 84 84 S 12 19 30.30 1026 10 16 N/A
9:35 am 09:35 Sunny 40 4.6 34 1.2 79 79 S 13 20 30.30 1026 10 16 N/A
9:55 am 09:55 Sunny 42 5.6 35 1.6 76 76 S 13 20 30.30 1026 10 16 N/A
10:15 am 10:15 Sunny 44 6.4 35 1.5 71 71 S 16 26 30.27 1025 10 16 N/A
10:35 am 10:35 Sunny 45 7.3 36 2 69 69 SSW 14 22 30.27 1025 10 16 N/A
10:55 am 10:55 Sunny 46 7.6 35 1.9 67 67 S 14 22 30.27 1025 10 16 N/A
11:15 am 11:15 Sunny 47 8.2 37 2.5 68 68 S 13 20 30.27 1025 10 16 N/A
11:35 am 11:35 Sunny 48 9.1 38 3.1 66 66 S 13 20 30.21 1023 10 16 N/A
11:55 am 11:55 Sunny 51 10.4 38 3.2 61 61 SSW 15 24 30.21 1023 10 16 N/A
12:15 pm 12:15 Sunny 53 11.4 38 3.3 58 58 S 13 20 30.18 1022 10 16 N/A
12:35 pm 12:35 Sunny 53 11.9 38 3.1 55 55 S 14 22 30.15 1021 10 16 N/A
12:55 pm 12:55 Sunny 53 11.8 38 3.1 56 56 S 13 20 30.15 1021 10 16 N/A
1:15 pm 13:15 Sunny 55 12.5 38 3.1 53 53 S 15 24 30.15 1021 10 16 N/A
1:35 pm 13:35 Sunny 53 11.9 38 3.1 55 55 S 14 22 30.12 1020 10 16 N/A
1:55 pm 13:55 Sunny 55 12.7 38 3.6 54 54 S 13 20 30.12 1020 10 16 N/A
2:15 pm 14:15 Sunny 54 12.2 38 3.5 56 56 S 13 20 30.09 1019 10 16 N/A
2:35 pm 14:35 Sunny 56 13.6 38 3.6 51 51 S 16 26 30.09 1019 10 16 N/A
2:55 pm 14:55 Sunny 60 15.4 39 3.7 46 46 S 17 28 30.06 1018 10 16 N/A
3:15 pm 15:15 Sunny 61 16.1 39 4.1 45 45 S 17 28 30.03 1017 10 16 N/A
3:35 pm 15:35 Sunny 62 16.8 39 4.1 43 43 S 21 33 30.03 1017 10 16 N/A
3:55 pm 15:55 Sunny 62 16.9 40 4.2 43 43 S 17 28 30.03 1017 10 16 N/A
4:15 pm 16:15 Sunny 62 16.8 40 4.2 43 43 S 18 30 30.03 1017 10 16 N/A
4:35 pm 16:35 Sunny 62 16.7 40 4.3 44 44 S 20 31 30.03 1017 10 16 N/A
4:55 pm 16:55 Sunny 63 17.2 40 4.5 43 43 S 17 28 29.97 1015 10 16 N/A
5:15 pm 17:15 Sunny 63 17.1 40 4.7 44 44 S 21 33 29.97 1015 10 16 N/A
5:35 pm 17:35 Sunny 62 16.7 40 4.7 45 45 S 16 26 30.00 1016 10 16 N/A
5:55 pm 17:55 Sunny 62 16.4 40 4.7 46 46 S 13 20 30.00 1016 10 16 N/A
6:15 pm 18:15 Sunny 61 16 41 5 48 48 S 15 24 30.00 1016 10 16 N/A
6:35 pm 18:35 Sunny 59 15.2 41 5 51 51 S 9 15 30.00 1016 10 16 N/A
6:55 pm 18:55 Sunny 57 13.7 41 5 56 56 SSE 8 13 30.00 1016 10 16 N/A
7:15 pm 19:15 Clear 54 12.2 40 4.7 60 60 SSE 9 15 30.03 1017 10 16 N/A
7:35 pm 19:35 Clear 54 12.2 40 4.5 60 60 SSE 9 15 30.03 1017 10 16 N/A
7:55 pm 19:55 Clear 53 11.5 40 4.5 62 62 SSE 9 15 30.03 1017 10 16 N/A
8:15 pm 20:15 Clear 53 11.5 40 4.3 62 62 SSE 10 17 30.03 1017 10 16 N/A
8:35 pm 20:35 Clear 52 11.1 39 4.1 62 62 SSE 10 17 30.03 1017 10 16 N/A
8:55 pm 20:55 Clear 51 10.7 39 3.8 63 63 SSE 10 17 30.03 1017 10 16 N/A
9:15 pm 21:15 Clear 50 10.2 38 3.6 64 64 SSE 10 17 30.06 1018 10 16 N/A
9:35 pm 21:35 Clear 49 9.6 38 3.5 66 66 SSE 9 15 30.06 1018 10 16 N/A
9:55 pm 21:55 Clear 50 9.8 38 3.5 65 65 SSE 10 17 30.06 1018 10 16 N/A
10:15 pm 22:15 Clear 50 10 38 3.3 63 63 SSE 10 17 30.06 1018 10 16 N/A
10:35 pm 22:35 Clear 49 9.3 38 3.3 66 66 SSE 10 17 30.06 1018 10 16 N/A
10:55 pm 22:55 Clear 49 9.3 38 3.2 66 66 SSE 12 19 30.06 1018 10 16 N/A
11:15 pm 23:15 Clear 47 8.5 38 3.1 69 69 SSE 8 13 30.06 1018 10 16 N/A
11:35 pm 23:35 Clear 47 8.2 38 3.2 71 71 SSE 8 13 30.06 1018 10 16 N/A
11:55 pm 23:55 Clear 46 7.6 38 3.1 73 73 SSE 6 9 30.06 1018 10 16 N/A

Powered by AerisWeather